Time,TemperatureF,DewpointF,PressureIn,WindDirection,WindDirectionDegrees,WindSpeedMPH,WindSpeedGustMPH,Humidity,HourlyPrecipIn,Conditions,Clouds,dailyrainin,SolarRadiationWatts/m^2,SoftwareType,DateUTC
2013-08-24 00:02:00,58.3,55.2,29.83,SSW,192,4.0,7.0,89,0.00,,,0.00,0.0,meteohub,2013-08-24 07:02:00,
2013-08-24 00:07:00,58.3,55.2,29.84,SW,215,2.0,7.0,89,0.00,,,0.00,0.0,meteohub,2013-08-24 07:07:00,
2013-08-24 00:12:00,58.3,54.9,29.84,SW,222,3.0,7.0,88,0.00,,,0.00,0.0,meteohub,2013-08-24 07:12:00,
2013-08-24 00:17:00,58.3,55.2,29.83,SSW,192,3.0,7.0,89,0.00,,,0.00,0.0,meteohub,2013-08-24 07:17:00,
2013-08-24 00:22:00,58.3,55.2,29.83,SW,218,2.0,7.0,89,0.00,,,0.00,0.0,meteohub,2013-08-24 07:22:00,
2013-08-24 00:27:00,58.1,55.0,29.84,SW,217,0.0,6.0,89,0.00,,,0.00,0.0,meteohub,2013-08-24 07:27:00,
2013-08-24 00:32:00,58.1,55.0,29.84,SSW,213,3.0,6.0,89,0.00,,,0.00,0.0,meteohub,2013-08-24 07:32:00,
2013-08-24 00:37:00,58.1,55.0,29.83,SSW,206,1.0,5.0,89,0.00,,,0.00,0.0,meteohub,2013-08-24 07:37:00,
2013-08-24 00:42:00,58.1,55.0,29.84,SSW,211,1.0,7.0,89,0.00,,,0.00,0.0,meteohub,2013-08-24 07:42:00,
2013-08-24 00:47:00,58.1,55.0,29.84,South,189,1.0,7.0,89,0.00,,,0.00,0.0,meteohub,2013-08-24 07:47:00,
2013-08-24 00:52:00,57.9,54.9,29.83,South,189,2.0,7.0,89,0.00,,,0.00,0.0,meteohub,2013-08-24 07:52:00,
2013-08-24 00:57:00,57.9,54.9,29.83,SW,231,1.0,5.0,89,0.00,,,0.00,0.0,meteohub,2013-08-24 07:57:00,
2013-08-24 01:02:00,57.7,54.7,29.83,SW,224,4.0,5.0,89,0.00,,,0.00,0.0,meteohub,2013-08-24 08:02:00,
2013-08-24 01:08:00,57.7,55.0,29.84,SSW,194,3.0,6.0,90,0.00,,,0.00,0.0,meteohub,2013-08-24 08:08:00,
2013-08-24 01:13:00,57.9,54.9,29.84,SW,219,0.0,6.0,89,0.00,,,0.00,0.0,meteohub,2013-08-24 08:13:00,
2013-08-24 01:18:00,57.7,54.7,29.84,SW,219,0.0,6.0,89,0.00,,,0.00,0.0,meteohub,2013-08-24 08:18:00,
2013-08-24 01:23:00,57.4,54.1,29.83,SW,219,0.0,4.0,89,0.00,,,0.00,0.0,meteohub,2013-08-24 08:23:00,
2013-08-24 01:28:00,57.0,54.1,29.84,SW,217,1.0,3.0,90,0.00,,,0.00,0.0,meteohub,2013-08-24 08:28:00,
2013-08-24 01:33:00,57.4,54.5,29.84,WSW,255,0.0,4.0,90,0.00,,,0.00,0.0,meteohub,2013-08-24 08:33:00,
2013-08-24 01:38:00,57.6,54.7,29.84,SW,229,2.0,5.0,90,0.00,,,0.00,0.0,meteohub,2013-08-24 08:38:00,
2013-08-24 01:43:00,57.6,54.9,29.84,SW,229,5.0,5.0,90,0.00,,,0.00,0.0,meteohub,2013-08-24 08:43:00,
2013-08-24 01:48:00,57.7,55.0,29.84,SSW,202,0.0,6.0,90,0.00,,,0.00,0.0,meteohub,2013-08-24 08:48:00,
2013-08-24 01:53:00,57.9,54.9,29.84,SW,227,3.0,6.0,89,0.00,,,0.00,0.0,meteohub,2013-08-24 08:53:00,
2013-08-24 01:58:00,57.9,54.9,29.84,SSE,155,3.0,7.0,89,0.00,,,0.00,0.0,meteohub,2013-08-24 08:58:00,
2013-08-24 02:03:00,58.1,55.0,29.84,SSW,211,3.0,7.0,89,0.00,,,0.00,0.0,meteohub,2013-08-24 09:03:00,
2013-08-24 02:09:00,58.1,55.0,29.84,South,189,4.0,7.0,89,0.00,,,0.00,0.0,meteohub,2013-08-24 09:09:00,
2013-08-24 02:14:00,58.1,55.0,29.84,SSW,204,1.0,8.0,89,0.00,,,0.00,0.0,meteohub,2013-08-24 09:14:00,
2013-08-24 02:19:00,58.1,55.0,29.84,SW,229,1.0,8.0,89,0.00,,,0.00,0.0,meteohub,2013-08-24 09:19:00,
2013-08-24 02:24:00,57.9,54.5,29.84,WSW,240,1.0,7.0,88,0.00,,,0.00,0.0,meteohub,2013-08-24 09:24:00,
2013-08-24 02:29:00,57.6,54.5,29.84,SW,234,0.0,7.0,89,0.00,,,0.00,0.0,meteohub,2013-08-24 09:29:00,
2013-08-24 02:34:00,57.6,54.5,29.84,SSW,209,0.0,6.0,89,0.00,,,0.00,0.0,meteohub,2013-08-24 09:34:00,
2013-08-24 02:39:00,57.7,55.0,29.84,SW,227,0.0,6.0,90,0.00,,,0.00,0.0,meteohub,2013-08-24 09:39:00,
2013-08-24 02:44:00,57.6,54.9,29.84,SW,227,0.0,6.0,90,0.00,,,0.00,0.0,meteohub,2013-08-24 09:44:00,
2013-08-24 02:49:00,57.6,54.9,29.84,SW,227,0.0,6.0,90,0.00,,,0.00,0.0,meteohub,2013-08-24 09:49:00,
2013-08-24 02:54:00,57.6,54.9,29.84,SSW,194,1.0,3.0,90,0.00,,,0.00,0.0,meteohub,2013-08-24 09:54:00,
2013-08-24 02:59:00,57.7,55.0,29.84,South,182,4.0,6.0,90,0.00,,,0.00,0.0,meteohub,2013-08-24 09:59:00,
2013-08-24 03:04:00,58.1,55.4,29.84,SSW,198,3.0,10.0,90,0.00,,,0.00,0.0,meteohub,2013-08-24 10:04:00,
2013-08-24 03:10:00,58.1,55.0,29.84,SSW,202,3.0,10.0,89,0.00,,,0.00,0.0,meteohub,2013-08-24 10:10:00,
2013-08-24 03:15:00,58.1,55.0,29.84,SW,220,4.0,10.0,89,0.00,,,0.00,0.0,meteohub,2013-08-24 10:15:00,
2013-08-24 03:20:00,58.1,55.0,29.84,SW,217,3.0,8.0,89,0.00,,,0.00,0.0,meteohub,2013-08-24 10:20:00,
2013-08-24 03:25:00,57.9,54.9,29.84,SW,214,2.0,8.0,89,0.00,,,0.00,0.0,meteohub,2013-08-24 10:25:00,
2013-08-24 03:30:00,57.9,54.9,29.84,South,178,3.0,6.0,89,0.00,,,0.00,0.0,meteohub,2013-08-24 10:30:00,
2013-08-24 03:35:00,58.1,55.4,29.84,SW,217,5.0,7.0,90,0.00,,,0.00,0.0,meteohub,2013-08-24 10:35:00,
2013-08-24 03:40:00,58.1,55.4,29.84,SSW,213,6.0,8.0,90,0.00,,,0.00,0.0,meteohub,2013-08-24 10:40:00,
2013-08-24 03:45:00,58.1,55.4,29.84,SSW,200,1.0,9.0,90,0.00,,,0.00,0.0,meteohub,2013-08-24 10:45:00,
2013-08-24 03:50:00,58.1,55.4,29.84,SSW,213,2.0,9.0,90,0.00,,,0.00,0.0,meteohub,2013-08-24 10:50:00,
2013-08-24 03:55:00,58.1,55.0,29.84,SW,235,0.0,9.0,89,0.00,,,0.00,0.0,meteohub,2013-08-24 10:55:00,
2013-08-24 04:00:00,58.1,55.4,29.84,SW,223,2.0,9.0,90,0.00,,,0.00,0.0,meteohub,2013-08-24 11:00:00,
2013-08-24 04:05:00,58.1,55.4,29.84,SW,220,2.0,7.0,90,0.00,,,0.00,0.0,meteohub,2013-08-24 11:05:00,
2013-08-24 04:11:00,58.1,55.4,29.84,SSW,206,1.0,6.0,90,0.00,,,0.00,0.0,meteohub,2013-08-24 11:11:00,
2013-08-24 04:16:00,57.9,54.9,29.84,SW,223,0.0,6.0,89,0.00,,,0.00,0.0,meteohub,2013-08-24 11:16:00,
2013-08-24 04:21:00,57.7,55.0,29.84,SW,215,1.0,6.0,90,0.00,,,0.00,0.0,meteohub,2013-08-24 11:21:00,
2013-08-24 04:26:00,57.7,55.0,29.84,SW,215,2.0,6.0,90,0.00,,,0.00,0.0,meteohub,2013-08-24 11:26:00,
2013-08-24 04:31:00,57.7,55.0,29.84,SW,215,0.0,5.0,90,0.00,,,0.00,0.0,meteohub,2013-08-24 11:31:00,
2013-08-24 04:36:00,57.6,54.9,29.84,SW,215,0.0,5.0,90,0.00,,,0.00,0.0,meteohub,2013-08-24 11:36:00,
2013-08-24 04:41:00,57.6,54.9,29.84,South,187,2.0,5.0,90,0.00,,,0.00,0.0,meteohub,2013-08-24 11:41:00,
2013-08-24 04:46:00,57.6,54.9,29.84,SSW,201,3.0,8.0,90,0.00,,,0.00,0.0,meteohub,2013-08-24 11:46:00,
2013-08-24 04:51:00,57.6,54.9,29.84,SSW,194,1.0,8.0,90,0.00,,,0.00,0.0,meteohub,2013-08-24 11:51:00,
2013-08-24 04:56:00,57.6,54.9,29.84,SSW,203,2.0,6.0,90,0.00,,,0.00,0.0,meteohub,2013-08-24 11:56:00,
2013-08-24 05:01:00,57.7,55.0,29.84,SSW,211,6.0,6.0,90,0.00,,,0.00,0.0,meteohub,2013-08-24 12:01:00,
2013-08-24 05:06:00,57.7,55.4,29.84,SSW,201,3.0,7.0,91,0.00,,,0.00,0.0,meteohub,2013-08-24 12:06:00,
2013-08-24 05:12:00,57.9,55.6,29.84,SW,229,3.0,7.0,91,0.00,,,0.00,0.0,meteohub,2013-08-24 12:12:00,
2013-08-24 05:17:00,57.9,55.6,29.84,SSW,210,4.0,10.0,91,0.00,,,0.00,0.0,meteohub,2013-08-24 12:17:00,
2013-08-24 05:22:00,57.7,55.0,29.84,SSW,201,0.0,10.0,90,0.00,,,0.00,0.0,meteohub,2013-08-24 12:22:00,
2013-08-24 05:27:00,57.7,55.0,29.84,SSW,211,1.0,7.0,90,0.00,,,0.00,0.0,meteohub,2013-08-24 12:27:00,
2013-08-24 05:32:00,57.7,55.0,29.84,SSW,203,2.0,6.0,90,0.00,,,0.00,0.0,meteohub,2013-08-24 12:32:00,
2013-08-24 05:37:00,57.7,55.4,29.84,SSW,205,1.0,6.0,91,0.00,,,0.00,0.0,meteohub,2013-08-24 12:37:00,
2013-08-24 05:42:00,58.1,55.4,29.84,South,188,4.0,8.0,90,0.00,,,0.00,0.0,meteohub,2013-08-24 12:42:00,
2013-08-24 05:47:00,58.1,55.4,29.84,South,186,2.0,8.0,90,0.00,,,0.00,0.0,meteohub,2013-08-24 12:47:00,
2013-08-24 05:52:00,58.1,55.4,29.84,SW,214,3.0,8.0,90,0.00,,,0.00,0.0,meteohub,2013-08-24 12:52:00,
2013-08-24 05:57:00,58.1,55.4,29.84,SSW,204,4.0,7.0,90,0.00,,,0.00,0.0,meteohub,2013-08-24 12:57:00,
2013-08-24 06:02:00,58.3,55.6,29.84,South,174,6.0,9.0,90,0.00,,,0.00,0.0,meteohub,2013-08-24 13:02:00,
2013-08-24 06:07:00,58.3,55.6,29.84,SSW,207,5.0,10.0,90,0.00,,,0.00,0.0,meteohub,2013-08-24 13:07:00,
2013-08-24 06:12:00,58.3,55.6,29.84,SSW,201,2.0,10.0,90,0.00,,,0.00,0.0,meteohub,2013-08-24 13:12:00,
2013-08-24 06:17:00,58.1,55.4,29.85,SSW,210,4.0,8.0,90,0.00,,,0.00,0.0,meteohub,2013-08-24 13:17:00,
2013-08-24 06:22:00,57.7,55.0,29.85,SW,220,1.0,7.0,90,0.00,,,0.00,0.0,meteohub,2013-08-24 13:22:00,
2013-08-24 06:27:00,57.6,54.9,29.85,SW,220,0.0,7.0,90,0.00,,,0.00,0.0,meteohub,2013-08-24 13:27:00,
2013-08-24 06:32:00,57.6,54.7,29.85,SW,220,0.0,6.0,90,0.00,,,0.00,0.0,meteohub,2013-08-24 13:32:00,
2013-08-24 06:37:00,57.6,54.7,29.85,SW,220,0.0,3.0,90,0.00,,,0.00,5.0,meteohub,2013-08-24 13:37:00,
2013-08-24 06:42:00,57.6,55.0,29.85,SW,220,3.0,3.0,91,0.00,,,0.00,7.0,meteohub,2013-08-24 13:42:00,
2013-08-24 06:47:00,57.6,55.2,29.85,SW,220,0.0,3.0,91,0.00,,,0.00,11.0,meteohub,2013-08-24 13:47:00,
2013-08-24 06:52:00,57.7,55.4,29.85,SW,220,0.0,3.0,91,0.00,,,0.00,14.0,meteohub,2013-08-24 13:52:00,
2013-08-24 06:57:00,58.1,55.8,29.85,SW,220,1.0,3.0,91,0.00,,,0.00,16.0,meteohub,2013-08-24 13:57:00,
2013-08-24 07:02:00,58.1,55.8,29.85,SW,220,1.0,3.0,91,0.00,,,0.00,14.0,meteohub,2013-08-24 14:02:00,
2013-08-24 07:07:00,58.3,55.6,29.85,SSW,213,1.0,5.0,90,0.00,,,0.00,16.0,meteohub,2013-08-24 14:07:00,
2013-08-24 07:12:00,58.1,55.4,29.85,SSW,213,3.0,7.0,90,0.00,,,0.00,19.0,meteohub,2013-08-24 14:12:00,
2013-08-24 07:17:00,57.9,55.2,29.85,SSW,213,3.0,7.0,90,0.00,,,0.00,19.0,meteohub,2013-08-24 14:17:00,
2013-08-24 07:22:00,57.7,55.0,29.86,SSW,213,0.0,6.0,90,0.00,,,0.00,23.0,meteohub,2013-08-24 14:22:00,
2013-08-24 07:27:00,57.6,54.9,29.86,SSW,213,3.0,4.0,90,0.00,,,0.00,26.0,meteohub,2013-08-24 14:27:00,
2013-08-24 07:32:00,57.9,55.2,29.86,WSW,257,0.0,4.0,90,0.00,,,0.00,113.0,meteohub,2013-08-24 14:32:00,
2013-08-24 07:37:00,58.6,55.6,29.86,SW,226,1.0,4.0,89,0.00,,,0.00,58.0,meteohub,2013-08-24 14:37:00,
2013-08-24 07:42:00,59.0,55.9,29.86,SW,226,0.0,4.0,89,0.00,,,0.00,79.0,meteohub,2013-08-24 14:42:00,
2013-08-24 07:47:00,59.2,55.8,29.86,SSW,196,0.0,4.0,88,0.00,,,0.00,44.0,meteohub,2013-08-24 14:47:00,
2013-08-24 07:53:00,59.2,55.8,29.86,SW,215,2.0,7.0,88,0.00,,,0.00,123.0,meteohub,2013-08-24 14:53:00,
2013-08-24 07:58:00,59.9,56.5,29.86,SW,234,0.0,7.0,88,0.00,,,0.00,123.0,meteohub,2013-08-24 14:58:00,
2013-08-24 08:03:00,60.4,56.5,29.86,WSW,254,3.0,7.0,86,0.00,,,0.00,77.0,meteohub,2013-08-24 15:03:00,
2013-08-24 08:08:00,61.0,57.0,29.86,West,266,0.0,7.0,86,0.00,,,0.00,243.0,meteohub,2013-08-24 15:08:00,
2013-08-24 08:13:00,61.0,56.3,29.86,West,266,3.0,7.0,84,0.00,,,0.00,257.0,meteohub,2013-08-24 15:13:00,
2013-08-24 08:18:00,61.2,56.8,29.86,SSW,201,4.0,7.0,85,0.00,,,0.00,125.0,meteohub,2013-08-24 15:18:00,
2013-08-24 08:23:00,61.7,57.4,29.86,South,180,5.0,5.0,85,0.00,,,0.00,171.0,meteohub,2013-08-24 15:23:00,
2013-08-24 08:28:00,62.1,57.2,29.86,SSW,198,0.0,8.0,83,0.00,,,0.00,299.0,meteohub,2013-08-24 15:28:00,
2013-08-24 08:33:00,62.2,57.0,29.86,SSW,193,2.0,8.0,82,0.00,,,0.00,315.0,meteohub,2013-08-24 15:33:00,
2013-08-24 08:38:00,62.6,57.0,29.86,SW,223,9.0,11.0,81,0.00,,,0.00,329.0,meteohub,2013-08-24 15:38:00,
2013-08-24 08:43:00,63.0,57.6,29.86,SW,229,8.0,11.0,82,0.00,,,0.00,348.0,meteohub,2013-08-24 15:43:00,
2013-08-24 08:48:00,63.5,57.6,29.86,SSW,193,6.0,12.0,80,0.00,,,0.00,362.0,meteohub,2013-08-24 15:48:00,
2013-08-24 08:54:00,64.0,57.4,29.86,South,180,4.0,12.0,78,0.00,,,0.00,380.0,meteohub,2013-08-24 15:54:00,
2013-08-24 08:59:00,64.2,56.8,29.86,West,274,3.0,10.0,76,0.00,,,0.00,394.0,meteohub,2013-08-24 15:59:00,
2013-08-24 09:04:00,64.0,56.3,29.86,WSW,241,1.0,9.0,75,0.00,,,0.00,408.0,meteohub,2013-08-24 16:04:00,
2013-08-24 09:09:00,64.8,56.7,29.86,WSW,242,0.0,9.0,74,0.00,,,0.00,424.0,meteohub,2013-08-24 16:09:00,
2013-08-24 09:14:00,65.3,57.6,29.86,SSW,195,1.0,9.0,75,0.00,,,0.00,441.0,meteohub,2013-08-24 16:14:00,
2013-08-24 09:19:00,65.5,57.6,29.86,SSE,159,0.0,6.0,75,0.00,,,0.00,455.0,meteohub,2013-08-24 16:19:00,
2013-08-24 09:24:00,65.7,57.6,29.86,SSW,199,2.0,6.0,74,0.00,,,0.00,471.0,meteohub,2013-08-24 16:24:00,
2013-08-24 09:29:00,65.8,57.6,29.86,SSW,192,0.0,6.0,74,0.00,,,0.00,485.0,meteohub,2013-08-24 16:29:00,
2013-08-24 09:34:00,66.6,58.5,29.86,SSW,209,2.0,8.0,74,0.00,,,0.00,499.0,meteohub,2013-08-24 16:34:00,
2013-08-24 09:39:00,66.6,57.9,29.86,SSE,157,3.0,8.0,73,0.00,,,0.00,515.0,meteohub,2013-08-24 16:39:00,
2013-08-24 09:44:00,67.1,58.1,29.86,SSW,200,1.0,8.0,72,0.00,,,0.00,527.0,meteohub,2013-08-24 16:44:00,
2013-08-24 09:49:00,67.8,58.5,29.86,SE,142,4.0,6.0,71,0.00,,,0.00,543.0,meteohub,2013-08-24 16:49:00,
2013-08-24 09:55:00,68.5,58.3,29.86,SW,214,4.0,6.0,69,0.00,,,0.00,557.0,meteohub,2013-08-24 16:55:00,
2013-08-24 10:00:00,68.7,58.1,29.86,SSW,205,7.0,7.0,68,0.00,,,0.00,573.0,meteohub,2013-08-24 17:00:00,
2013-08-24 10:05:00,68.9,57.9,29.86,WSW,241,3.0,7.0,67,0.00,,,0.00,584.0,meteohub,2013-08-24 17:05:00,
2013-08-24 10:10:00,69.3,57.6,29.86,South,171,4.0,9.0,65,0.00,,,0.00,598.0,meteohub,2013-08-24 17:10:00,
2013-08-24 10:15:00,69.8,58.3,29.86,SW,214,3.0,9.0,66,0.00,,,0.00,610.0,meteohub,2013-08-24 17:15:00,
2013-08-24 10:20:00,70.0,57.4,29.86,SW,223,3.0,9.0,63,0.00,,,0.00,622.0,meteohub,2013-08-24 17:20:00,
2013-08-24 10:25:00,70.7,57.6,29.86,South,191,7.0,9.0,62,0.00,,,0.00,635.0,meteohub,2013-08-24 17:25:00,
2013-08-24 10:30:00,71.1,57.6,29.86,SW,226,3.0,7.0,61,0.00,,,0.00,647.0,meteohub,2013-08-24 17:30:00,
2013-08-24 10:35:00,71.2,57.6,29.86,SW,230,0.0,7.0,61,0.00,,,0.00,659.0,meteohub,2013-08-24 17:35:00,
2013-08-24 10:40:00,72.0,57.9,29.86,SW,225,1.0,7.0,60,0.00,,,0.00,671.0,meteohub,2013-08-24 17:40:00,
2013-08-24 10:45:00,72.1,57.6,29.86,WSW,244,2.0,7.0,59,0.00,,,0.00,682.0,meteohub,2013-08-24 17:45:00,
2013-08-24 10:50:00,72.5,57.6,29.86,SSW,197,2.0,7.0,58,0.00,,,0.00,689.0,meteohub,2013-08-24 17:50:00,
2013-08-24 10:56:00,73.4,55.9,29.86,WSW,252,2.0,7.0,53,0.00,,,0.00,705.0,meteohub,2013-08-24 17:56:00,
2013-08-24 11:01:00,73.2,57.4,29.86,SW,219,3.0,6.0,56,0.00,,,0.00,715.0,meteohub,2013-08-24 18:01:00,
2013-08-24 11:06:00,73.4,57.6,29.86,SW,226,2.0,9.0,56,0.00,,,0.00,726.0,meteohub,2013-08-24 18:06:00,
2013-08-24 11:11:00,73.9,57.6,29.86,SW,226,3.0,9.0,55,0.00,,,0.00,737.0,meteohub,2013-08-24 18:11:00,
2013-08-24 11:16:00,73.8,58.1,29.86,SW,221,9.0,9.0,57,0.00,,,0.00,745.0,meteohub,2013-08-24 18:16:00,
2013-08-24 11:21:00,73.8,58.1,29.86,SSW,204,3.0,9.0,57,0.00,,,0.00,756.0,meteohub,2013-08-24 18:21:00,
2013-08-24 11:26:00,74.7,57.9,29.86,South,188,6.0,9.0,55,0.00,,,0.00,765.0,meteohub,2013-08-24 18:26:00,
2013-08-24 11:31:00,74.8,58.3,29.86,WNW,301,5.0,13.0,55,0.00,,,0.00,772.0,meteohub,2013-08-24 18:31:00,
2013-08-24 11:36:00,75.6,57.9,29.86,SW,236,8.0,13.0,53,0.00,,,0.00,779.0,meteohub,2013-08-24 18:36:00,
2013-08-24 11:41:00,75.6,58.5,29.86,WSW,241,13.0,13.0,54,0.00,,,0.00,786.0,meteohub,2013-08-24 18:41:00,
2013-08-24 11:46:00,75.9,58.8,29.86,SW,217,0.0,13.0,54,0.00,,,0.00,791.0,meteohub,2013-08-24 18:46:00,
2013-08-24 11:51:00,76.6,57.9,29.86,SW,219,3.0,13.0,51,0.00,,,0.00,798.0,meteohub,2013-08-24 18:51:00,
2013-08-24 11:57:00,76.3,58.1,29.86,SSW,200,8.0,13.0,52,0.00,,,0.00,807.0,meteohub,2013-08-24 18:57:00,
2013-08-24 12:02:00,75.9,57.7,29.86,SW,227,6.0,12.0,52,0.00,,,0.00,809.0,meteohub,2013-08-24 19:02:00,
2013-08-24 12:07:00,76.8,58.1,29.86,West,259,2.0,12.0,51,0.00,,,0.00,817.0,meteohub,2013-08-24 19:07:00,
2013-08-24 12:12:00,77.4,57.0,29.86,WNW,288,3.0,12.0,48,0.00,,,0.00,821.0,meteohub,2013-08-24 19:12:00,
2013-08-24 12:17:00,77.4,57.0,29.86,WNW,296,3.0,12.0,48,0.00,,,0.00,823.0,meteohub,2013-08-24 19:17:00,
2013-08-24 12:22:00,77.7,56.8,29.86,WNW,301,8.0,12.0,47,0.00,,,0.00,828.0,meteohub,2013-08-24 19:22:00,
2013-08-24 12:27:00,77.4,57.9,29.86,West,281,3.0,11.0,50,0.00,,,0.00,835.0,meteohub,2013-08-24 19:27:00,
2013-08-24 12:32:00,77.4,57.6,29.86,WNW,294,7.0,12.0,49,0.00,,,0.00,835.0,meteohub,2013-08-24 19:32:00,
2013-08-24 12:37:00,76.8,57.6,29.85,WNW,300,1.0,14.0,50,0.00,,,0.00,838.0,meteohub,2013-08-24 19:37:00,
2013-08-24 12:42:00,77.2,57.7,29.85,WSW,240,2.0,14.0,50,0.00,,,0.00,844.0,meteohub,2013-08-24 19:42:00,
2013-08-24 12:47:00,77.7,57.4,29.86,WNW,286,2.0,13.0,48,0.00,,,0.00,847.0,meteohub,2013-08-24 19:47:00,
2013-08-24 12:52:00,78.3,57.2,29.86,West,277,6.0,13.0,47,0.00,,,0.00,854.0,meteohub,2013-08-24 19:52:00,
2013-08-24 12:57:00,78.4,59.0,29.86,SW,220,3.0,14.0,50,0.00,,,0.00,860.0,meteohub,2013-08-24 19:57:00,
2013-08-24 13:02:00,78.4,58.5,29.86,West,274,4.0,14.0,49,0.00,,,0.00,872.0,meteohub,2013-08-24 20:02:00,
2013-08-24 13:07:00,78.1,58.6,29.85,WSW,246,10.0,14.0,50,0.00,,,0.00,893.0,meteohub,2013-08-24 20:07:00,
2013-08-24 13:12:00,78.4,58.5,29.86,West,265,7.0,13.0,49,0.00,,,0.00,724.0,meteohub,2013-08-24 20:12:00,
2013-08-24 13:17:00,78.8,58.8,29.86,West,268,10.0,13.0,49,0.00,,,0.00,809.0,meteohub,2013-08-24 20:17:00,
2013-08-24 13:22:00,78.1,58.6,29.85,SW,215,5.0,13.0,50,0.00,,,0.00,766.0,meteohub,2013-08-24 20:22:00,
2013-08-24 13:28:00,78.1,58.6,29.85,SW,231,2.0,14.0,50,0.00,,,0.00,777.0,meteohub,2013-08-24 20:28:00,
2013-08-24 13:33:00,78.1,58.6,29.85,SSW,213,8.0,14.0,50,0.00,,,0.00,844.0,meteohub,2013-08-24 20:33:00,
2013-08-24 13:38:00,78.1,58.6,29.85,SW,217,6.0,13.0,50,0.00,,,0.00,895.0,meteohub,2013-08-24 20:38:00,
2013-08-24 13:43:00,78.8,59.9,29.85,SSW,204,3.0,13.0,51,0.00,,,0.00,860.0,meteohub,2013-08-24 20:43:00,
2013-08-24 13:48:00,79.2,59.2,29.85,West,259,3.0,13.0,49,0.00,,,0.00,858.0,meteohub,2013-08-24 20:48:00,
2013-08-24 13:53:00,78.6,59.2,29.85,SW,215,5.0,13.0,50,0.00,,,0.00,833.0,meteohub,2013-08-24 20:53:00,
2013-08-24 13:58:00,78.3,59.4,29.85,WNW,292,6.0,14.0,51,0.00,,,0.00,846.0,meteohub,2013-08-24 20:58:00,
2013-08-24 14:03:00,77.7,59.9,29.86,SW,215,9.0,14.0,53,0.00,,,0.00,770.0,meteohub,2013-08-24 21:03:00,
2013-08-24 14:08:00,77.2,59.0,29.86,SW,234,7.0,14.0,52,0.00,,,0.00,805.0,meteohub,2013-08-24 21:08:00,
2013-08-24 14:14:00,77.4,59.0,29.85,South,188,4.0,12.0,52,0.00,,,0.00,803.0,meteohub,2013-08-24 21:14:00,
2013-08-24 14:19:00,77.2,59.4,29.85,SW,228,3.0,12.0,53,0.00,,,0.00,809.0,meteohub,2013-08-24 21:19:00,
2013-08-24 14:24:00,77.2,59.0,29.85,SW,217,4.0,12.0,52,0.00,,,0.00,786.0,meteohub,2013-08-24 21:24:00,
2013-08-24 14:29:00,77.9,59.0,29.85,SW,215,2.0,12.0,51,0.00,,,0.00,800.0,meteohub,2013-08-24 21:29:00,
2013-08-24 14:34:00,78.3,59.4,29.85,SW,214,3.0,11.0,51,0.00,,,0.00,770.0,meteohub,2013-08-24 21:34:00,
2013-08-24 14:39:00,78.6,59.7,29.85,South,183,0.0,12.0,51,0.00,,,0.00,802.0,meteohub,2013-08-24 21:39:00,
2013-08-24 14:44:00,78.3,58.8,29.85,SSW,211,5.0,12.0,50,0.00,,,0.00,795.0,meteohub,2013-08-24 21:44:00,
2013-08-24 14:49:00,78.4,59.0,29.85,SSW,210,4.0,14.0,50,0.00,,,0.00,745.0,meteohub,2013-08-24 21:49:00,
2013-08-24 14:54:00,79.0,58.8,29.85,SSW,205,7.0,14.0,49,0.00,,,0.00,694.0,meteohub,2013-08-24 21:54:00,
2013-08-24 15:00:00,78.1,58.6,29.84,SSW,203,5.0,14.0,50,0.00,,,0.00,629.0,meteohub,2013-08-24 22:00:00,
2013-08-24 15:05:00,78.1,58.6,29.85,WSW,246,7.0,13.0,50,0.00,,,0.00,788.0,meteohub,2013-08-24 22:05:00,
2013-08-24 15:10:00,79.0,58.8,29.84,SW,223,4.0,13.0,49,0.00,,,0.00,809.0,meteohub,2013-08-24 22:10:00,
2013-08-24 15:15:00,79.2,59.0,29.84,SSW,196,6.0,11.0,49,0.00,,,0.00,796.0,meteohub,2013-08-24 22:15:00,
2013-08-24 15:20:00,79.3,58.8,29.84,SW,221,3.0,10.0,48,0.00,,,0.00,789.0,meteohub,2013-08-24 22:20:00,
2013-08-24 15:25:00,79.2,58.5,29.84,SW,219,10.0,13.0,48,0.00,,,0.00,684.0,meteohub,2013-08-24 22:25:00,
2013-08-24 15:30:00,78.4,58.5,29.84,WNW,286,6.0,13.0,49,0.00,,,0.00,515.0,meteohub,2013-08-24 22:30:00,
2013-08-24 15:35:00,77.5,58.1,29.84,WSW,254,13.0,13.0,50,0.00,,,0.00,668.0,meteohub,2013-08-24 22:35:00,
2013-08-24 15:41:00,76.5,58.8,29.83,SW,219,4.0,15.0,53,0.00,,,0.00,540.0,meteohub,2013-08-24 22:41:00,
2013-08-24 15:46:00,76.3,59.2,29.83,SW,224,6.0,15.0,54,0.00,,,0.00,508.0,meteohub,2013-08-24 22:46:00,
2013-08-24 15:51:00,76.1,59.0,29.84,WSW,254,7.0,15.0,54,0.00,,,0.00,606.0,meteohub,2013-08-24 22:51:00,
2013-08-24 15:56:00,75.9,59.4,29.84,WSW,246,7.0,15.0,55,0.00,,,0.00,701.0,meteohub,2013-08-24 22:56:00,
2013-08-24 16:01:00,77.2,59.4,29.84,West,260,5.0,15.0,53,0.00,,,0.00,675.0,meteohub,2013-08-24 23:01:00,
2013-08-24 16:06:00,76.5,58.8,29.84,SW,229,9.0,15.0,53,0.00,,,0.00,526.0,meteohub,2013-08-24 23:06:00,
2013-08-24 16:11:00,76.3,59.2,29.84,WNW,283,9.0,14.0,54,0.00,,,0.00,663.0,meteohub,2013-08-24 23:11:00,
2013-08-24 16:16:00,76.5,59.4,29.83,SSW,213,6.0,14.0,54,0.00,,,0.00,643.0,meteohub,2013-08-24 23:16:00,
2013-08-24 16:21:00,76.6,58.5,29.83,SW,229,4.0,14.0,52,0.00,,,0.00,606.0,meteohub,2013-08-24 23:21:00,
2013-08-24 16:27:00,76.5,58.8,29.83,West,277,1.0,14.0,53,0.00,,,0.00,582.0,meteohub,2013-08-24 23:27:00,
2013-08-24 16:32:00,76.5,58.8,29.83,South,188,3.0,13.0,53,0.00,,,0.00,566.0,meteohub,2013-08-24 23:32:00,
2013-08-24 16:37:00,76.6,59.0,29.83,West,267,10.0,12.0,53,0.00,,,0.00,550.0,meteohub,2013-08-24 23:37:00,
2013-08-24 16:42:00,76.3,58.6,29.83,West,275,8.0,16.0,53,0.00,,,0.00,489.0,meteohub,2013-08-24 23:42:00,
2013-08-24 16:47:00,75.9,58.3,29.83,WSW,248,8.0,16.0,53,0.00,,,0.00,531.0,meteohub,2013-08-24 23:47:00,
2013-08-24 16:52:00,75.9,58.3,29.84,SSW,212,6.0,16.0,53,0.00,,,0.00,515.0,meteohub,2013-08-24 23:52:00,
2013-08-24 16:57:00,75.9,58.8,29.84,SSW,202,3.0,11.0,54,0.00,,,0.00,504.0,meteohub,2013-08-24 23:57:00,
2013-08-24 17:02:00,75.6,58.5,29.83,WSW,258,3.0,11.0,54,0.00,,,0.00,489.0,meteohub,2013-08-25 00:02:00,
2013-08-24 17:07:00,75.6,58.5,29.84,SW,234,3.0,10.0,54,0.00,,,0.00,468.0,meteohub,2013-08-25 00:07:00,
2013-08-24 17:12:00,75.4,58.3,29.83,WSW,250,6.0,18.0,54,0.00,,,0.00,448.0,meteohub,2013-08-25 00:12:00,
2013-08-24 17:17:00,75.0,58.5,29.83,West,265,5.0,18.0,55,0.00,,,0.00,413.0,meteohub,2013-08-25 00:17:00,
2013-08-24 17:22:00,75.2,58.6,29.83,SW,229,5.0,16.0,55,0.00,,,0.00,376.0,meteohub,2013-08-25 00:22:00,
2013-08-24 17:27:00,74.3,58.6,29.83,SW,231,7.0,16.0,57,0.00,,,0.00,406.0,meteohub,2013-08-25 00:27:00,
2013-08-24 17:32:00,73.9,58.8,29.83,WSW,258,5.0,13.0,58,0.00,,,0.00,388.0,meteohub,2013-08-25 00:32:00,
2013-08-24 17:37:00,73.9,58.8,29.83,WNW,296,5.0,13.0,58,0.00,,,0.00,281.0,meteohub,2013-08-25 00:37:00,
2013-08-24 17:42:00,74.1,59.0,29.83,WSW,238,4.0,13.0,58,0.00,,,0.00,292.0,meteohub,2013-08-25 00:42:00,
2013-08-24 17:47:00,73.8,59.0,29.83,WSW,256,3.0,13.0,59,0.00,,,0.00,343.0,meteohub,2013-08-25 00:47:00,
2013-08-24 17:52:00,73.6,59.0,29.83,SW,217,3.0,13.0,59,0.00,,,0.00,332.0,meteohub,2013-08-25 00:52:00,
2013-08-24 17:57:00,73.6,59.0,29.83,SW,224,3.0,13.0,59,0.00,,,0.00,221.0,meteohub,2013-08-25 00:57:00,
2013-08-24 18:02:00,73.2,58.6,29.83,West,261,0.0,10.0,59,0.00,,,0.00,285.0,meteohub,2013-08-25 01:02:00,
2013-08-24 18:07:00,73.0,58.8,29.84,West,269,1.0,9.0,60,0.00,,,0.00,241.0,meteohub,2013-08-25 01:07:00,
2013-08-24 18:12:00,73.0,58.8,29.84,West,269,1.0,9.0,60,0.00,,,0.00,244.0,meteohub,2013-08-25 01:12:00,
2013-08-24 18:17:00,72.9,58.6,29.84,West,264,7.0,8.0,60,0.00,,,0.00,255.0,meteohub,2013-08-25 01:17:00,
2013-08-24 18:22:00,72.3,58.6,29.84,WNW,286,5.0,8.0,61,0.00,,,0.00,248.0,meteohub,2013-08-25 01:22:00,
2013-08-24 18:27:00,72.0,58.8,29.83,West,273,6.0,12.0,62,0.00,,,0.00,230.0,meteohub,2013-08-25 01:27:00,
2013-08-24 18:32:00,71.6,58.8,29.83,WSW,252,4.0,12.0,63,0.00,,,0.00,190.0,meteohub,2013-08-25 01:32:00,
2013-08-24 18:37:00,71.6,58.8,29.83,SW,220,4.0,12.0,63,0.00,,,0.00,192.0,meteohub,2013-08-25 01:37:00,
2013-08-24 18:42:00,71.4,58.6,29.83,SW,217,6.0,11.0,63,0.00,,,0.00,156.0,meteohub,2013-08-25 01:42:00,
2013-08-24 18:47:00,71.2,59.0,29.83,WSW,249,4.0,11.0,64,0.00,,,0.00,121.0,meteohub,2013-08-25 01:47:00,
2013-08-24 18:52:00,71.1,58.8,29.83,WSW,253,3.0,11.0,64,0.00,,,0.00,35.0,meteohub,2013-08-25 01:52:00,
2013-08-24 18:57:00,70.7,58.8,29.83,West,269,3.0,11.0,65,0.00,,,0.00,37.0,meteohub,2013-08-25 01:57:00,
2013-08-24 19:02:00,70.5,58.6,29.83,WSW,257,4.0,8.0,65,0.00,,,0.00,40.0,meteohub,2013-08-25 02:02:00,
2013-08-24 19:07:00,70.0,58.5,29.83,WNW,294,2.0,8.0,66,0.00,,,0.00,40.0,meteohub,2013-08-25 02:07:00,
2013-08-24 19:12:00,69.4,58.5,29.83,West,273,4.0,10.0,67,0.00,,,0.00,35.0,meteohub,2013-08-25 02:12:00,
2013-08-24 19:17:00,68.7,58.1,29.83,West,280,2.0,10.0,68,0.00,,,0.00,30.0,meteohub,2013-08-25 02:17:00,
2013-08-24 19:22:00,68.2,57.9,29.83,WNW,282,3.0,10.0,69,0.00,,,0.00,25.0,meteohub,2013-08-25 02:22:00,
2013-08-24 19:27:00,67.8,58.1,29.83,West,281,3.0,8.0,70,0.00,,,0.00,16.0,meteohub,2013-08-25 02:27:00,
2013-08-24 19:32:00,67.5,58.1,29.84,WNW,295,3.0,12.0,71,0.00,,,0.00,11.0,meteohub,2013-08-25 02:32:00,
2013-08-24 19:37:00,67.1,58.1,29.84,West,273,2.0,12.0,72,0.00,,,0.00,7.0,meteohub,2013-08-25 02:37:00,
2013-08-24 19:42:00,67.3,58.3,29.84,WSW,257,2.0,12.0,72,0.00,,,0.00,5.0,meteohub,2013-08-25 02:42:00,
2013-08-24 19:47:00,67.1,58.5,29.84,WSW,257,0.0,7.0,73,0.00,,,0.00,0.0,meteohub,2013-08-25 02:47:00,
2013-08-24 19:52:00,66.7,58.1,29.84,WSW,257,0.0,5.0,73,0.00,,,0.00,0.0,meteohub,2013-08-25 02:52:00,
2013-08-24 19:57:00,66.6,58.5,29.84,SW,221,3.0,5.0,74,0.00,,,0.00,0.0,meteohub,2013-08-25 02:57:00,
2013-08-24 20:02:00,66.2,58.1,29.85,SSW,204,3.0,5.0,74,0.00,,,0.00,0.0,meteohub,2013-08-25 03:02:00,
2013-08-24 20:07:00,66.0,58.1,29.85,West,280,0.0,5.0,75,0.00,,,0.00,0.0,meteohub,2013-08-25 03:07:00,
2013-08-24 20:12:00,65.8,57.9,29.85,West,280,0.0,5.0,75,0.00,,,0.00,0.0,meteohub,2013-08-25 03:12:00,
2013-08-24 20:17:00,65.7,58.1,29.85,West,280,1.0,5.0,76,0.00,,,0.00,0.0,meteohub,2013-08-25 03:17:00,
2013-08-24 20:22:00,65.3,57.7,29.85,SSW,198,0.0,5.0,76,0.00,,,0.00,0.0,meteohub,2013-08-25 03:22:00,
2013-08-24 20:27:00,64.8,57.6,29.86,SSW,198,0.0,5.0,77,0.00,,,0.00,0.0,meteohub,2013-08-25 03:27:00,
2013-08-24 20:32:00,64.2,57.6,29.86,SSW,198,0.0,5.0,78,0.00,,,0.00,0.0,meteohub,2013-08-25 03:32:00,
2013-08-24 20:37:00,63.9,57.6,29.86,SSW,198,0.0,1.0,79,0.00,,,0.00,0.0,meteohub,2013-08-25 03:37:00,
2013-08-24 20:42:00,63.9,57.7,29.86,SSW,198,0.0,1.0,80,0.00,,,0.00,0.0,meteohub,2013-08-25 03:42:00,
2013-08-24 20:47:00,63.7,57.6,29.86,SSW,198,1.0,2.0,80,0.00,,,0.00,0.0,meteohub,2013-08-25 03:47:00,
2013-08-24 20:52:00,64.0,57.9,29.86,SSW,198,2.0,4.0,80,0.00,,,0.00,0.0,meteohub,2013-08-25 03:52:00,
2013-08-24 20:57:00,64.4,58.3,29.86,SSW,198,3.0,4.0,80,0.00,,,0.00,0.0,meteohub,2013-08-25 03:57:00,
2013-08-24 21:01:00,64.6,58.1,29.86,SSW,202,0.0,4.0,79,0.00,,,0.00,0.0,meteohub,2013-08-25 04:01:00,
2013-08-24 21:02:00,64.6,58.1,29.86,SSW,202,0.0,4.0,79,0.00,,,0.00,0.0,meteohub,2013-08-25 04:02:00,
2013-08-24 21:07:00,64.4,57.9,29.86,SSW,202,1.0,5.0,79,0.00,,,0.00,0.0,meteohub,2013-08-25 04:07:00,
2013-08-24 21:12:00,64.0,57.9,29.86,SSW,213,0.0,6.0,80,0.00,,,0.00,0.0,meteohub,2013-08-25 04:12:00,
2013-08-24 21:17:00,63.9,58.1,29.86,SSW,213,0.0,6.0,81,0.00,,,0.00,0.0,meteohub,2013-08-25 04:17:00,
2013-08-24 21:23:00,63.7,57.9,29.86,SSW,196,3.0,6.0,81,0.00,,,0.00,0.0,meteohub,2013-08-25 04:23:00,
2013-08-24 21:28:00,63.3,57.6,29.86,SSW,194,0.0,6.0,81,0.00,,,0.00,0.0,meteohub,2013-08-25 04:28:00,
2013-08-24 21:33:00,63.0,57.9,29.87,SSW,194,1.0,6.0,83,0.00,,,0.00,0.0,meteohub,2013-08-25 04:33:00,
2013-08-24 21:38:00,63.0,57.9,29.87,South,190,2.0,6.0,83,0.00,,,0.00,0.0,meteohub,2013-08-25 04:38:00,
2013-08-24 21:43:00,63.0,57.9,29.87,SW,217,2.0,5.0,83,0.00,,,0.00,0.0,meteohub,2013-08-25 04:43:00,
2013-08-24 21:48:00,62.8,58.1,29.87,SW,215,0.0,6.0,84,0.00,,,0.00,0.0,meteohub,2013-08-25 04:48:00,
2013-08-24 21:53:00,62.4,57.7,29.87,SW,219,3.0,6.0,84,0.00,,,0.00,0.0,meteohub,2013-08-25 04:53:00,
2013-08-24 21:58:00,62.1,57.7,29.87,SSW,208,3.0,6.0,85,0.00,,,0.00,0.0,meteohub,2013-08-25 04:58:00,
2013-08-24 22:04:00,62.2,57.9,29.88,SSW,203,0.0,6.0,85,0.00,,,0.00,0.0,meteohub,2013-08-25 05:04:00,
2013-08-24 22:09:00,61.9,57.6,29.88,SSW,203,0.0,6.0,85,0.00,,,0.00,0.0,meteohub,2013-08-25 05:09:00,
2013-08-24 22:14:00,61.9,57.7,29.88,SSW,203,0.0,5.0,86,0.00,,,0.00,0.0,meteohub,2013-08-25 05:14:00,
2013-08-24 22:19:00,61.9,57.9,29.88,SSW,203,0.0,4.0,86,0.00,,,0.00,0.0,meteohub,2013-08-25 05:19:00,
2013-08-24 22:24:00,61.7,57.6,29.88,SSW,203,0.0,0.0,86,0.00,,,0.00,0.0,meteohub,2013-08-25 05:24:00,
2013-08-24 22:29:00,61.7,57.7,29.88,SSW,203,0.0,1.0,87,0.00,,,0.00,0.0,meteohub,2013-08-25 05:29:00,
2013-08-24 22:35:00,61.3,57.0,29.88,SSW,203,0.0,3.0,85,0.00,,,0.00,0.0,meteohub,2013-08-25 05:35:00,
2013-08-24 22:40:00,60.8,57.4,29.88,SSW,203,0.0,3.0,88,0.00,,,0.00,0.0,meteohub,2013-08-25 05:40:00,
2013-08-24 22:45:00,61.0,57.6,29.88,SSW,203,0.0,2.0,88,0.00,,,0.00,0.0,meteohub,2013-08-25 05:45:00,
2013-08-24 22:50:00,61.0,57.6,29.88,SSW,203,0.0,0.0,88,0.00,,,0.00,0.0,meteohub,2013-08-25 05:50:00,
2013-08-24 22:55:00,61.0,57.6,29.89,SSW,203,0.0,0.0,88,0.00,,,0.00,0.0,meteohub,2013-08-25 05:55:00,
2013-08-24 23:00:00,60.8,57.6,29.89,SSW,203,0.0,0.0,89,0.00,,,0.00,0.0,meteohub,2013-08-25 06:00:00,
2013-08-24 23:05:00,60.8,57.4,29.89,SSW,203,0.0,0.0,88,0.00,,,0.00,0.0,meteohub,2013-08-25 06:05:00,
2013-08-24 23:11:00,60.8,57.6,29.89,SSW,203,0.0,2.0,89,0.00,,,0.00,0.0,meteohub,2013-08-25 06:11:00,
2013-08-24 23:16:00,61.2,58.3,29.89,SSW,194,1.0,2.0,90,0.00,,,0.00,0.0,meteohub,2013-08-25 06:16:00,
2013-08-24 23:21:00,61.5,58.6,29.89,SSW,204,4.0,5.0,90,0.00,,,0.00,0.0,meteohub,2013-08-25 06:21:00,
2013-08-24 23:26:00,61.7,58.5,29.89,SSW,210,2.0,5.0,89,0.00,,,0.00,0.0,meteohub,2013-08-25 06:26:00,
2013-08-24 23:31:00,61.7,58.5,29.89,SSW,200,1.0,5.0,89,0.00,,,0.00,0.0,meteohub,2013-08-25 06:31:00,
2013-08-24 23:36:00,61.7,58.8,29.89,South,182,1.0,5.0,90,0.00,,,0.00,0.0,meteohub,2013-08-25 06:36:00,
2013-08-24 23:41:00,61.7,58.8,29.89,South,191,3.0,4.0,90,0.00,,,0.00,0.0,meteohub,2013-08-25 06:41:00,
2013-08-24 23:46:00,61.7,58.8,29.89,South,191,2.0,6.0,90,0.00,,,0.00,0.0,meteohub,2013-08-25 06:46:00,
2013-08-24 23:52:00,61.5,58.6,29.89,SSW,203,3.0,6.0,90,0.00,,,0.00,0.0,meteohub,2013-08-25 06:52:00,
2013-08-24 23:57:00,61.3,58.6,29.89,SSW,205,0.0,5.0,91,0.00,,,0.00,0.0,meteohub,2013-08-25 06:57:00,